Location: Casalecchio di Reno
(44.4760°N, 11.2757°E)
Time: 16:26:37
(UTC+02:00)

DX 1 - Pass Details

Date: 27 June 2024
Orbit: 607 x 619 km, 98.3° (Epoch: 19 July)

Event Time Altitude Azimuth Distance (km) Brightness Sun altitude
Rises 02:18:44 0° 2° (N) 2,878 ? -20.8°
Reaches altitude 10° 02:21:10 10° 350° (N) 1,969 ? -20.7°
Maximum altitude 02:24:44 26° 294° (WNW) 1,200 ? -20.5°
Enters shadow 02:26:01 23° 265° (W) 1,323 ? -20.5°
